Clarksville, TN

8:30 PM CDT on June 25, 2017 (GMT -0500)
Outlaw

Weather History for KCKV - September, 2013

Change the Weather History Date:

Friday, September 20, 2013

  Actual Average Record
Temperature  
Mean Temperature 75 °F 68 °F  
Max Temperature 84 °F 81 °F 98 °F (1955)
Min Temperature 66 °F 56 °F 43 °F (1981)
Degree Days  
Heating Degree Days 0 1  
Month to date heating degree days 2 5  
Since 1 July heating degree days 2 6  
Cooling Degree Days 10 5  
Month to date cooling degree days 182 146  
Year to date cooling degree days 1366  
Growing Degree Days 24 (Base 50)    
Moisture  
Dew Point 68 °F    
Average Humidity 82    
Maximum Humidity 100    
Minimum Humidity 63    
Precipitation  
Precipitation 2.67 in 0.10 in 2.67 in (2013)
Month to date precipitation 3.99 2.26  
Year to date precipitation 35.39  
Sea Level Pressure  
Sea Level Pressure 29.88 in    
Wind  
Wind Speed 5 mph (NW)    
Max Wind Speed 13 mph    
Max Gust Speed 16 mph    
Visibility 5 miles    
Events Rain    
T = Trace of Precipitation, MM = Missing Value Source: NWS Daily Summary

Daily Weather History Graph

Daily Weather History Graph

Search for Another Location

Airport or City:

Trip Planner

Search our weather history database for the weather conditions in past years. The results will help you decide how hot, cold, wet, or windy it might be!

Date:

Astronomy

Sep. 20, 2013 Rise Set
Actual Time 6:36 AM CDT 6:49 PM CDT
Civil Twilight 6:10 AM CDT 7:14 PM CDT
Nautical Twilight 5:40 AM CDT 7:45 PM CDT
Astronomical Twilight 5:09 AM CDT 8:15 PM CDT
Moon 7:26 PM CDT (9/20) 7:47 AM CDT (9/20)
Length of Visible Light 13h 04m
Length of Day
12h 13m
Full, 98% of the Moon is Illuminated
Sep 20
Full
Sep 26
Last Quarter
Oct 4
New
Oct 11
First Quarter
Oct 18
Full

Hourly Weather History & Observations

Time (CDT) Temp. Heat Index Dew Point Humidity Pressure Visibility Wind Dir Wind Speed Gust Speed Precip Events Conditions
12:52 AM 71.1 °F - 66.0 °F 84% 30.00 in 10.0 mi Calm Calm - N/A   Clear
1:52 AM 69.1 °F - 66.0 °F 90% 30.00 in 9.0 mi Calm Calm - N/A   Clear
2:52 AM 71.1 °F - 66.0 °F 84% 29.99 in 10.0 mi South 5.8 mph - N/A   Clear
3:52 AM 70.0 °F - 64.9 °F 84% 29.97 in 10.0 mi SSE 3.5 mph - N/A   Clear
4:52 AM 66.9 °F - 64.0 °F 90% 29.98 in 10.0 mi South 3.5 mph - N/A   Clear
5:52 AM 66.9 °F - 64.0 °F 90% 29.98 in 8.0 mi SE 4.6 mph - N/A   Clear
6:52 AM 66.9 °F - 64.0 °F 90% 29.98 in 8.0 mi SSE 3.5 mph - N/A   Partly Cloudy
7:52 AM 72.0 °F - 64.9 °F 78% 29.98 in 10.0 mi South 5.8 mph - N/A   Partly Cloudy
8:52 AM 73.9 °F - 64.9 °F 73% 29.98 in 10.0 mi South 8.1 mph - N/A   Mostly Cloudy
9:52 AM 77.0 °F - 64.9 °F 66% 29.98 in 10.0 mi SSW 9.2 mph - N/A   Mostly Cloudy
10:52 AM 78.1 °F - 66.0 °F 66% 29.97 in 10.0 mi Variable 6.9 mph - N/A   Mostly Cloudy
11:52 AM 82.0 °F 84.9 °F 68.0 °F 62% 29.94 in 10.0 mi SW 10.4 mph - N/A   Mostly Cloudy
12:52 PM 82.9 °F 85.8 °F 68.0 °F 60% 29.92 in 10.0 mi SSW 5.8 mph - N/A   Mostly Cloudy
1:52 PM 82.9 °F 85.8 °F 68.0 °F 60% 29.89 in 10.0 mi SSW 4.6 mph - N/A   Mostly Cloudy
2:52 PM 82.0 °F 84.9 °F 68.0 °F 62% 29.86 in 10.0 mi SW 4.6 mph - N/A   Mostly Cloudy
3:52 PM 81.0 °F 84.1 °F 69.1 °F 67% 29.85 in 10.0 mi WSW 4.6 mph - 0.00 in Rain Light Rain
4:52 PM 77.0 °F - 72.0 °F 84% 29.85 in 10.0 mi WNW 3.5 mph - 0.01 in Rain Light Rain
5:50 PM 73.4 °F - 71.6 °F 94% 29.86 in 5.0 mi North 3.5 mph - 0.02 in Rain Light Rain
5:52 PM 73.9 °F - 72.0 °F 93% 29.85 in 5.0 mi North 3.5 mph - 0.02 in Rain Light Rain
6:52 PM 73.0 °F - 71.1 °F 93% 29.84 in 8.0 mi North 6.9 mph - 0.02 in Rain Light Rain
7:41 PM 71.6 °F - 69.8 °F 94% 29.85 in 1.8 mi SE 3.5 mph - 0.13 in Rain Heavy Rain
7:52 PM 72.0 °F - 70.0 °F 93% 29.83 in 1.8 mi ESE 8.1 mph - 0.23 in Rain Heavy Rain
8:10 PM 71.6 °F - 69.8 °F 94% 29.84 in 3.0 mi North 8.1 mph - 0.13 in Rain Rain
8:20 PM 71.6 °F - 69.8 °F 94% 29.85 in 1.8 mi WNW 5.8 mph - 0.21 in Rain Heavy Rain
8:31 PM 71.6 °F - 69.8 °F 94% 29.85 in 1.5 mi NNW 4.6 mph - 0.30 in Rain Heavy Rain
8:39 PM 71.6 °F - 69.8 °F 94% 29.85 in 3.0 mi North 4.6 mph - 0.33 in Rain Rain
8:52 PM 71.1 °F - 69.1 °F 93% 29.83 in 3.0 mi Calm Calm - 0.38 in Rain Rain
9:03 PM 71.6 °F - 69.8 °F 94% 29.84 in 2.5 mi North 3.5 mph - 0.05 in Rain Rain
9:12 PM 71.6 °F - 69.8 °F 94% 29.83 in 4.0 mi NNE 3.5 mph - 0.07 in Rain Rain
9:22 PM 71.6 °F - 69.8 °F 94% 29.83 in 5.0 mi ENE 5.8 mph - 0.09 in Rain Light Rain
9:41 PM 71.6 °F - 69.8 °F 94% 29.82 in 2.5 mi NE 5.8 mph - 0.16 in Rain Heavy Rain
9:52 PM 71.1 °F - 70.0 °F 96% 29.81 in 1.8 mi NNE 4.6 mph - 0.26 in Rain Heavy Rain
9:59 PM 71.6 °F - 69.8 °F 94% 29.82 in 1.2 mi North 5.8 mph - 0.03 in Rain Heavy Rain
10:10 PM 71.6 °F - 69.8 °F 94% 29.84 in 0.8 mi WNW 6.9 mph - 0.38 in Rain Heavy Rain
10:21 PM 69.8 °F - 69.8 °F 100% 29.84 in 1.0 mi NW 5.8 mph - 0.63 in Rain Heavy Rain
10:44 PM 69.8 °F - 69.8 °F 100% 29.82 in 3.0 mi North 4.6 mph - 0.89 in Rain Rain
10:52 PM 70.0 °F - 69.1 °F 97% 29.81 in 1.8 mi NNW 3.5 mph - 1.03 in Rain Heavy Rain
11:07 PM 69.8 °F - 68.0 °F 94% 29.83 in 1.5 mi NW 6.9 mph - 0.24 in Rain Heavy Rain
11:15 PM 69.8 °F - 68.0 °F 94% 29.83 in 1.0 mi West 4.6 mph - 0.36 in Rain Heavy Rain
11:20 PM 69.8 °F - 68.0 °F 94% 29.83 in 1.0 mi NNW 6.9 mph - 0.40 in Rain Heavy Rain
11:27 PM 69.8 °F - 68.0 °F 94% 29.84 in 2.0 mi NNW 5.8 mph - 0.43 in Rain Heavy Rain
11:40 PM 69.8 °F - 68.0 °F 94% 29.84 in 1.5 mi NW 8.1 mph - 0.53 in Rain Heavy Rain
11:47 PM 69.8 °F - 66.2 °F 88% 29.82 in 2.0 mi NNW 11.5 mph - 0.59 in Rain Heavy Rain
11:52 PM 69.1 °F - 66.9 °F 93% 29.80 in 1.8 mi North 10.4 mph - 0.62 in Rain Heavy Rain
11:56 PM 69.8 °F - 66.2 °F 88% 29.82 in 2.0 mi North 9.2 mph - 0.02 in Rain Heavy Rain